DTTA

Tunis-Carthage

Airport
ICAO code
DTTA
Summary
ICAO Region
AFI
ICAO Territory
Location

Tunis, Tunisia,

Coordinates
36° 51' 4" N , 10° 13' 38" E
KCC
Metar
DTTA 171200Z 05008KT 020V100 CAVOK 35/16 Q1014

Description

Tunis - Carthage International Airport is the international airport serving Tunis in Tunisia.

Climatology

(Köppen climate classification BSh)

Runways

Designator Length Width Surface Rops
11/29 2840 45 ASP Yes/Yes
1/19 3200 45 ASP Yes/Yes

Airport map

Aerial View

SKYbrary Partners:

Safety knowledge contributed by: